Time,TemperatureF,DewpointF,PressureIn,WindDirection,WindDirectionDegrees,WindSpeedMPH,WindSpeedGustMPH,Humidity,HourlyPrecipIn,Conditions,Clouds,dailyrainin,SoftwareType,DateUTC
2013-02-26 00:04:00,45.0,30.2,29.51,WNW,292,6.3,6.3,56,0.00,,,0.00,WUHU21623XXSP,2013-02-26 06:04:00,
2013-02-26 00:09:00,44.8,30.0,29.51,West,270,3.1,14.1,56,0.00,,,0.00,WUHU21623XXSP,2013-02-26 06:09:00,
2013-02-26 00:14:00,44.8,30.5,29.52,WNW,292,11.9,14.1,57,0.00,,,0.00,WUHU21623XXSP,2013-02-26 06:14:00,
2013-02-26 00:19:00,44.8,30.0,29.52,NW,315,15.2,15.2,56,0.00,,,0.00,WUHU21623XXSP,2013-02-26 06:19:00,
2013-02-26 00:24:00,44.6,30.3,29.52,WNW,292,8.1,15.2,57,0.00,,,0.00,WUHU21623XXSP,2013-02-26 06:24:00,
2013-02-26 00:29:00,44.6,30.3,29.52,WNW,292,14.5,14.5,57,0.00,,,0.00,WUHU21623XXSP,2013-02-26 06:29:00,
2013-02-26 00:34:00,44.4,30.1,29.52,WSW,247,6.0,14.5,57,0.00,,,0.00,WUHU21623XXSP,2013-02-26 06:34:00,
2013-02-26 00:39:00,44.4,30.1,29.52,West,270,6.7,12.3,57,0.00,,,0.00,WUHU21623XXSP,2013-02-26 06:39:00,
2013-02-26 00:44:00,44.4,30.1,29.52,NW,315,6.3,12.1,57,0.00,,,0.00,WUHU21623XXSP,2013-02-26 06:44:00,
2013-02-26 00:49:00,44.4,30.1,29.52,NW,315,12.8,12.8,57,0.00,,,0.00,WUHU21623XXSP,2013-02-26 06:49:00,
2013-02-26 00:54:00,44.2,29.9,29.52,WSW,247,7.2,12.8,57,0.00,,,0.00,WUHU21623XXSP,2013-02-26 06:54:00,
2013-02-26 00:59:00,44.2,29.9,29.52,West,270,7.4,7.4,57,0.00,,,0.00,WUHU21623XXSP,2013-02-26 06:59:00,
2013-02-26 01:04:00,44.2,29.9,29.52,WNW,292,8.7,8.7,57,0.00,,,0.00,WUHU21623XXSP,2013-02-26 07:04:00,
2013-02-26 01:09:00,44.1,29.8,29.52,WNW,292,3.1,8.7,57,0.00,,,0.00,WUHU21623XXSP,2013-02-26 07:09:00,
2013-02-26 01:14:00,44.1,29.8,29.53,NW,315,6.9,6.9,57,0.00,,,0.00,WUHU21623XXSP,2013-02-26 07:14:00,
2013-02-26 01:19:00,43.9,29.6,29.53,West,270,3.6,9.2,57,0.00,,,0.00,WUHU21623XXSP,2013-02-26 07:19:00,
2013-02-26 01:24:00,43.9,29.6,29.53,West,270,4.5,9.2,57,0.00,,,0.00,WUHU21623XXSP,2013-02-26 07:24:00,
2013-02-26 01:29:00,43.9,29.6,29.53,West,270,3.8,19.7,57,0.00,,,0.00,WUHU21623XXSP,2013-02-26 07:29:00,
2013-02-26 01:34:00,43.7,29.4,29.53,WNW,292,4.9,19.7,57,0.00,,,0.00,WUHU21623XXSP,2013-02-26 07:34:00,
2013-02-26 01:39:00,43.5,29.2,29.53,NW,315,2.2,10.3,57,0.00,,,0.00,WUHU21623XXSP,2013-02-26 07:39:00,
2013-02-26 01:44:00,43.5,29.7,29.53,South,180,2.2,9.6,58,0.00,,,0.00,WUHU21623XXSP,2013-02-26 07:44:00,
2013-02-26 01:49:00,43.5,29.7,29.53,WNW,292,8.5,11.2,58,0.00,,,0.00,WUHU21623XXSP,2013-02-26 07:49:00,
2013-02-26 01:54:00,43.5,29.7,29.53,WSW,247,3.4,11.2,58,0.00,,,0.00,WUHU21623XXSP,2013-02-26 07:54:00,
2013-02-26 01:59:00,43.3,29.5,29.53,West,270,5.6,5.6,58,0.00,,,0.00,WUHU21623XXSP,2013-02-26 07:59:00,
2013-02-26 02:04:00,43.3,29.5,29.53,NNW,337,3.8,6.3,58,0.00,,,0.00,WUHU21623XXSP,2013-02-26 08:04:00,
2013-02-26 02:09:00,43.3,29.5,29.53,WNW,292,11.2,11.2,58,0.00,,,0.00,WUHU21623XXSP,2013-02-26 08:09:00,
2013-02-26 02:14:00,43.2,29.3,29.52,West,270,7.6,11.2,58,0.00,,,0.00,WUHU21623XXSP,2013-02-26 08:14:00,
2013-02-26 02:19:00,43.0,29.1,29.52,WSW,247,2.5,9.6,58,0.00,,,0.00,WUHU21623XXSP,2013-02-26 08:19:00,
2013-02-26 02:24:00,43.0,29.1,29.52,WNW,292,4.9,9.6,58,0.00,,,0.00,WUHU21623XXSP,2013-02-26 08:24:00,
2013-02-26 02:29:00,43.0,29.1,29.52,WSW,247,7.2,9.6,58,0.00,,,0.00,WUHU21623XXSP,2013-02-26 08:29:00,
2013-02-26 02:34:00,43.0,29.1,29.52,SW,225,3.8,7.2,58,0.00,,,0.00,WUHU21623XXSP,2013-02-26 08:34:00,
2013-02-26 02:39:00,42.8,29.0,29.52,West,270,7.2,10.1,58,0.00,,,0.00,WUHU21623XXSP,2013-02-26 08:39:00,
2013-02-26 02:44:00,42.6,28.8,29.52,WSW,247,2.7,10.1,58,0.00,,,0.00,WUHU21623XXSP,2013-02-26 08:44:00,
2013-02-26 02:49:00,42.6,28.8,29.52,WNW,292,5.8,5.8,58,0.00,,,0.00,WUHU21623XXSP,2013-02-26 08:49:00,
2013-02-26 02:54:00,42.6,28.8,29.52,WNW,292,4.0,5.8,58,0.00,,,0.00,WUHU21623XXSP,2013-02-26 08:54:00,
2013-02-26 02:59:00,42.6,28.8,29.52,WSW,247,4.0,5.8,58,0.00,,,0.00,WUHU21623XXSP,2013-02-26 08:59:00,
2013-02-26 03:04:00,42.6,28.8,29.52,SSW,202,2.5,6.0,58,0.00,,,0.00,WUHU21623XXSP,2013-02-26 09:04:00,
2013-02-26 03:09:00,42.4,28.6,29.53,NNW,337,1.8,6.0,58,0.00,,,0.00,WUHU21623XXSP,2013-02-26 09:09:00,
2013-02-26 03:14:00,42.4,28.6,29.53,West,270,3.8,6.0,58,0.00,,,0.00,WUHU21623XXSP,2013-02-26 09:14:00,
2013-02-26 03:19:00,42.4,28.6,29.53,West,270,6.7,6.7,58,0.00,,,0.00,WUHU21623XXSP,2013-02-26 09:19:00,
2013-02-26 03:24:00,42.4,28.6,29.53,NW,315,3.1,6.7,58,0.00,,,0.00,WUHU21623XXSP,2013-02-26 09:24:00,
2013-02-26 03:29:00,42.4,28.6,29.54,NW,315,2.9,6.7,58,0.00,,,0.00,WUHU21623XXSP,2013-02-26 09:29:00,
2013-02-26 03:34:00,42.4,28.6,29.54,NNW,337,4.7,10.5,58,0.00,,,0.00,WUHU21623XXSP,2013-02-26 09:34:00,
2013-02-26 03:39:00,42.1,28.3,29.54,WNW,292,5.8,10.5,58,0.00,,,0.00,WUHU21623XXSP,2013-02-26 09:39:00,
2013-02-26 03:44:00,42.1,28.3,29.54,WNW,292,7.6,7.6,58,0.00,,,0.00,WUHU21623XXSP,2013-02-26 09:44:00,
2013-02-26 03:49:00,42.1,28.3,29.54,NW,315,7.8,7.8,58,0.00,,,0.00,WUHU21623XXSP,2013-02-26 09:49:00,
2013-02-26 03:54:00,42.1,28.3,29.53,West,270,4.0,7.8,58,0.00,,,0.00,WUHU21623XXSP,2013-02-26 09:54:00,
2013-02-26 03:59:00,42.1,28.7,29.54,West,270,7.6,7.8,59,0.00,,,0.00,WUHU21623XXSP,2013-02-26 09:59:00,
2013-02-26 04:04:00,42.1,28.7,29.54,NW,315,6.7,7.8,59,0.00,,,0.00,WUHU21623XXSP,2013-02-26 10:04:00,
2013-02-26 04:09:00,42.1,28.7,29.54,WNW,292,0.0,7.6,59,0.00,,,0.00,WUHU21623XXSP,2013-02-26 10:09:00,
2013-02-26 04:14:00,41.9,28.6,29.54,West,270,2.5,3.1,59,0.00,,,0.00,WUHU21623XXSP,2013-02-26 10:14:00,
2013-02-26 04:19:00,41.9,28.6,29.54,West,270,2.5,4.3,59,0.00,,,0.00,WUHU21623XXSP,2013-02-26 10:19:00,
2013-02-26 04:24:00,41.9,28.6,29.54,West,270,1.6,4.3,59,0.00,,,0.00,WUHU21623XXSP,2013-02-26 10:24:00,
2013-02-26 04:29:00,41.7,28.4,29.53,WNW,292,4.5,5.1,59,0.00,,,0.00,WUHU21623XXSP,2013-02-26 10:29:00,
2013-02-26 04:35:00,41.7,28.4,29.54,WNW,292,3.8,5.1,59,0.00,,,0.00,WUHU21623XXSP,2013-02-26 10:35:00,
2013-02-26 04:40:00,41.7,28.4,29.54,West,270,2.7,3.8,59,0.00,,,0.00,WUHU21623XXSP,2013-02-26 10:40:00,
2013-02-26 04:45:00,41.5,28.3,29.54,West,270,3.8,4.5,59,0.00,,,0.00,WUHU21623XXSP,2013-02-26 10:45:00,
2013-02-26 04:50:00,41.5,28.3,29.55,WSW,247,0.0,4.5,59,0.00,,,0.00,WUHU21623XXSP,2013-02-26 10:50:00,
2013-02-26 04:55:00,41.4,28.1,29.55,West,270,4.5,4.5,59,0.00,,,0.00,WUHU21623XXSP,2013-02-26 10:55:00,
2013-02-26 05:00:00,41.4,28.1,29.54,West,270,3.1,4.5,59,0.00,,,0.00,WUHU21623XXSP,2013-02-26 11:00:00,
2013-02-26 05:05:00,41.2,28.4,29.55,WSW,247,2.9,4.5,60,0.00,,,0.00,WUHU21623XXSP,2013-02-26 11:05:00,
2013-02-26 05:10:00,41.2,28.4,29.55,West,270,2.2,4.0,60,0.00,,,0.00,WUHU21623XXSP,2013-02-26 11:10:00,
2013-02-26 05:15:00,41.0,28.2,29.54,West,270,3.8,4.0,60,0.00,,,0.00,WUHU21623XXSP,2013-02-26 11:15:00,
2013-02-26 05:20:00,41.0,28.2,29.54,West,270,4.0,4.0,60,0.00,,,0.00,WUHU21623XXSP,2013-02-26 11:20:00,
2013-02-26 05:25:00,40.8,28.2,29.55,WNW,292,4.0,4.0,60,0.00,,,0.00,WUHU21623XXSP,2013-02-26 11:25:00,
2013-02-26 05:30:00,40.8,28.0,29.55,WSW,247,2.5,4.0,60,0.00,,,0.00,WUHU21623XXSP,2013-02-26 11:30:00,
2013-02-26 05:35:00,40.8,28.0,29.55,West,270,1.3,4.0,60,0.00,,,0.00,WUHU21623XXSP,2013-02-26 11:35:00,
2013-02-26 05:40:00,40.6,28.4,29.55,West,270,8.7,8.7,61,0.00,,,0.00,WUHU21623XXSP,2013-02-26 11:40:00,
2013-02-26 05:45:00,40.6,28.2,29.55,WNW,292,3.8,8.7,61,0.00,,,0.00,WUHU21623XXSP,2013-02-26 11:45:00,
2013-02-26 05:50:00,40.6,28.2,29.55,West,270,7.6,9.6,61,0.00,,,0.00,WUHU21623XXSP,2013-02-26 11:50:00,
2013-02-26 05:55:00,40.5,28.1,29.55,WSW,247,6.9,9.6,61,0.00,,,0.00,WUHU21623XXSP,2013-02-26 11:55:00,
2013-02-26 06:00:00,40.5,28.1,29.56,West,270,2.0,8.5,61,0.00,,,0.00,WUHU21623XXSP,2013-02-26 12:00:00,
2013-02-26 06:05:00,40.3,27.9,29.55,WSW,247,8.9,8.9,61,0.00,,,0.00,WUHU21623XXSP,2013-02-26 12:05:00,
2013-02-26 06:10:00,40.3,27.9,29.55,WNW,292,11.0,11.0,61,0.00,,,0.00,WUHU21623XXSP,2013-02-26 12:10:00,
2013-02-26 06:15:00,40.3,27.9,29.55,SW,225,1.6,11.0,61,0.00,,,0.00,WUHU21623XXSP,2013-02-26 12:15:00,
2013-02-26 06:20:00,40.3,27.9,29.56,WSW,247,5.8,5.8,61,0.00,,,0.00,WUHU21623XXSP,2013-02-26 12:20:00,
2013-02-26 06:25:00,40.1,27.7,29.55,NW,315,1.6,5.8,61,0.00,,,0.00,WUHU21623XXSP,2013-02-26 12:25:00,
2013-02-26 06:30:00,40.1,27.7,29.55,SW,225,3.6,4.5,61,0.00,,,0.00,WUHU21623XXSP,2013-02-26 12:30:00,
2013-02-26 06:35:00,40.1,27.7,29.56,West,270,1.6,3.8,61,0.00,,,0.00,WUHU21623XXSP,2013-02-26 12:35:00,
2013-02-26 06:40:00,39.9,27.9,29.56,WNW,292,1.3,3.8,62,0.00,,,0.00,WUHU21623XXSP,2013-02-26 12:40:00,
2013-02-26 06:45:00,39.9,27.5,29.56,WSW,247,3.1,3.1,61,0.00,,,0.00,WUHU21623XXSP,2013-02-26 12:45:00,
2013-02-26 06:50:00,39.9,27.5,29.57,WNW,292,0.0,3.1,61,0.00,,,0.00,WUHU21623XXSP,2013-02-26 12:50:00,
2013-02-26 06:55:00,39.9,27.9,29.57,WSW,247,0.0,2.0,62,0.00,,,0.00,WUHU21623XXSP,2013-02-26 12:55:00,
2013-02-26 07:00:00,39.9,27.9,29.57,West,270,3.4,3.6,62,0.00,,,0.00,WUHU21623XXSP,2013-02-26 13:00:00,
2013-02-26 07:05:00,39.9,27.9,29.57,NW,315,6.0,7.6,62,0.00,,,0.00,WUHU21623XXSP,2013-02-26 13:05:00,
2013-02-26 07:10:00,39.9,27.9,29.57,West,270,6.0,7.6,62,0.00,,,0.00,WUHU21623XXSP,2013-02-26 13:10:00,
2013-02-26 07:15:00,39.7,27.7,29.58,West,270,0.7,6.0,62,0.00,,,0.00,WUHU21623XXSP,2013-02-26 13:15:00,
2013-02-26 07:20:00,39.7,27.7,29.58,WNW,292,8.9,8.9,62,0.00,,,0.00,WUHU21623XXSP,2013-02-26 13:20:00,
2013-02-26 07:25:00,39.7,27.7,29.58,West,270,4.7,8.9,62,0.00,,,0.00,WUHU21623XXSP,2013-02-26 13:25:00,
2013-02-26 07:30:00,39.7,27.7,29.58,WSW,247,6.3,6.3,62,0.00,,,0.00,WUHU21623XXSP,2013-02-26 13:30:00,
2013-02-26 07:35:00,39.9,27.9,29.58,WSW,247,6.7,6.7,62,0.00,,,0.00,WUHU21623XXSP,2013-02-26 13:35:00,
2013-02-26 07:40:00,39.9,27.9,29.58,NW,315,2.0,7.6,62,0.00,,,0.00,WUHU21623XXSP,2013-02-26 13:40:00,
2013-02-26 07:45:00,40.3,28.3,29.58,West,270,2.7,7.6,62,0.00,,,0.00,WUHU21623XXSP,2013-02-26 13:45:00,
2013-02-26 07:50:00,40.6,28.6,29.59,NW,315,5.8,5.8,62,0.00,,,0.00,WUHU21623XXSP,2013-02-26 13:50:00,
2013-02-26 07:55:00,41.2,29.1,29.59,WSW,247,6.5,9.2,62,0.00,,,0.00,WUHU21623XXSP,2013-02-26 13:55:00,
2013-02-26 08:00:00,41.5,29.5,29.59,West,270,8.3,9.2,62,0.00,,,0.00,WUHU21623XXSP,2013-02-26 14:00:00,
2013-02-26 08:05:00,41.7,29.2,29.60,NW,315,2.7,8.3,61,0.00,,,0.00,WUHU21623XXSP,2013-02-26 14:05:00,
2013-02-26 08:10:00,42.3,29.6,29.60,West,270,1.8,10.7,61,0.00,,,0.00,WUHU21623XXSP,2013-02-26 14:10:00,
2013-02-26 08:15:00,42.4,29.5,29.60,West,270,6.7,11.9,60,0.00,,,0.00,WUHU21623XXSP,2013-02-26 14:15:00,
2013-02-26 08:20:00,42.6,29.7,29.60,West,270,6.0,11.9,60,0.00,,,0.00,WUHU21623XXSP,2013-02-26 14:20:00,
2013-02-26 08:25:00,43.0,29.6,29.60,WNW,292,6.5,11.9,59,0.00,,,0.00,WUHU21623XXSP,2013-02-26 14:25:00,
2013-02-26 08:30:00,43.0,29.6,29.60,NW,315,9.6,11.9,59,0.00,,,0.00,WUHU21623XXSP,2013-02-26 14:30:00,
2013-02-26 08:35:00,43.3,29.9,29.61,West,270,4.9,9.6,59,0.00,,,0.00,WUHU21623XXSP,2013-02-26 14:35:00,
2013-02-26 08:40:00,43.5,30.1,29.61,NW,315,7.6,8.3,59,0.00,,,0.00,WUHU21623XXSP,2013-02-26 14:40:00,
2013-02-26 08:45:00,43.7,30.3,29.61,WNW,292,8.1,8.1,59,0.00,,,0.00,WUHU21623XXSP,2013-02-26 14:45:00,
2013-02-26 08:50:00,44.1,30.2,29.61,WNW,292,11.9,11.9,58,0.00,,,0.00,WUHU21623XXSP,2013-02-26 14:50:00,
2013-02-26 08:55:00,44.4,30.1,29.61,NNW,337,4.0,11.9,57,0.00,,,0.00,WUHU21623XXSP,2013-02-26 14:55:00,
2013-02-26 09:00:00,44.6,30.3,29.61,WSW,247,6.0,11.4,57,0.00,,,0.00,WUHU21623XXSP,2013-02-26 15:00:00,
2013-02-26 09:05:00,45.0,30.2,29.62,WNW,292,4.7,17.2,56,0.00,,,0.00,WUHU21623XXSP,2013-02-26 15:05:00,
2013-02-26 09:10:00,45.3,30.3,29.62,NW,315,8.9,17.2,56,0.00,,,0.00,WUHU21623XXSP,2013-02-26 15:10:00,
2013-02-26 09:15:00,45.5,30.6,29.62,WNW,292,9.4,12.5,56,0.00,,,0.00,WUHU21623XXSP,2013-02-26 15:15:00,
2013-02-26 09:20:00,46.0,30.7,29.62,NW,315,10.1,12.5,55,0.00,,,0.00,WUHU21623XXSP,2013-02-26 15:20:00,
2013-02-26 09:25:00,46.4,31.0,29.62,West,270,8.9,19.0,55,0.00,,,0.00,WUHU21623XXSP,2013-02-26 15:25:00,
2013-02-26 09:30:00,46.6,30.7,29.62,WNW,292,13.4,19.0,54,0.00,,,0.00,WUHU21623XXSP,2013-02-26 15:30:00,
2013-02-26 09:35:00,46.9,31.1,29.62,WNW,292,10.5,13.4,54,0.00,,,0.00,WUHU21623XXSP,2013-02-26 15:35:00,
2013-02-26 09:40:00,47.3,30.9,29.62,West,270,8.9,10.5,53,0.00,,,0.00,WUHU21623XXSP,2013-02-26 15:40:00,
2013-02-26 09:45:00,47.5,31.1,29.62,WNW,292,4.5,10.3,53,0.00,,,0.00,WUHU21623XXSP,2013-02-26 15:45:00,
2013-02-26 09:50:00,47.7,31.3,29.62,NNE,22,8.7,10.3,53,0.00,,,0.00,WUHU21623XXSP,2013-02-26 15:50:00,
2013-02-26 09:55:00,48.0,31.6,29.62,WNW,292,6.9,11.9,53,0.00,,,0.00,WUHU21623XXSP,2013-02-26 15:55:00,
2013-02-26 10:00:00,48.4,31.5,29.62,WNW,292,12.3,12.3,52,0.00,,,0.00,WUHU21623XXSP,2013-02-26 16:00:00,
2013-02-26 10:05:00,48.7,31.8,29.62,WSW,247,1.3,12.3,52,0.00,,,0.00,WUHU21623XXSP,2013-02-26 16:05:00,
2013-02-26 10:10:00,48.9,32.0,29.62,South,180,5.1,10.7,51,0.00,,,0.00,WUHU21623XXSP,2013-02-26 16:10:00,
2013-02-26 10:15:00,49.3,31.9,29.62,SSW,202,4.7,5.1,51,0.00,,,0.00,WUHU21623XXSP,2013-02-26 16:15:00,
2013-02-26 10:20:00,49.6,32.3,29.62,WNW,292,3.8,6.9,51,0.00,,,0.00,WUHU21623XXSP,2013-02-26 16:20:00,
2013-02-26 10:25:00,49.8,32.5,29.62,WSW,247,5.4,6.9,51,0.00,,,0.00,WUHU21623XXSP,2013-02-26 16:25:00,
2013-02-26 10:31:00,50.2,32.8,29.62,WNW,292,5.1,8.5,51,0.00,,,0.00,WUHU21623XXSP,2013-02-26 16:31:00,
2013-02-26 10:36:00,50.7,32.8,29.61,NNW,337,12.5,12.5,50,0.00,,,0.00,WUHU21623XXSP,2013-02-26 16:36:00,
2013-02-26 10:41:00,50.7,32.3,29.61,NW,315,12.3,12.5,49,0.00,,,0.00,WUHU21623XXSP,2013-02-26 16:41:00,
2013-02-26 10:46:00,50.9,32.4,29.62,NNW,337,13.4,13.4,49,0.00,,,0.00,WUHU21623XXSP,2013-02-26 16:46:00,
2013-02-26 10:51:00,51.3,32.2,29.62,NNW,337,1.8,13.4,48,0.00,,,0.00,WUHU21623XXSP,2013-02-26 16:51:00,
2013-02-26 10:56:00,51.4,32.9,29.62,WSW,247,6.0,10.3,49,0.00,,,0.00,WUHU21623XXSP,2013-02-26 16:56:00,
2013-02-26 11:01:00,51.6,32.5,29.62,West,270,8.9,12.5,48,0.00,,,0.00,WUHU21623XXSP,2013-02-26 17:01:00,
2013-02-26 11:06:00,52.0,32.8,29.62,NNW,337,2.2,12.5,48,0.00,,,0.00,WUHU21623XXSP,2013-02-26 17:06:00,
2013-02-26 11:11:00,52.2,33.0,29.63,West,270,2.2,10.3,48,0.00,,,0.00,WUHU21623XXSP,2013-02-26 17:11:00,
2013-02-26 11:16:00,52.3,32.6,29.63,WNW,292,4.5,8.7,47,0.00,,,0.00,WUHU21623XXSP,2013-02-26 17:16:00,
2013-02-26 11:21:00,52.7,32.4,29.62,NNW,337,7.4,10.3,46,0.00,,,0.00,WUHU21623XXSP,2013-02-26 17:21:00,
2013-02-26 11:26:00,52.9,32.5,29.62,West,270,1.6,10.7,46,0.00,,,0.00,WUHU21623XXSP,2013-02-26 17:26:00,
2013-02-26 11:31:00,53.2,32.9,29.62,WNW,292,7.6,10.7,46,0.00,,,0.00,WUHU21623XXSP,2013-02-26 17:31:00,
2013-02-26 11:36:00,53.6,33.0,29.62,WSW,247,8.5,8.5,46,0.00,,,0.00,WUHU21623XXSP,2013-02-26 17:36:00,
2013-02-26 11:41:00,54.0,32.4,29.62,NW,315,4.5,8.5,44,0.00,,,0.00,WUHU21623XXSP,2013-02-26 17:41:00,
2013-02-26 11:46:00,54.1,33.0,29.62,NW,315,4.5,8.5,45,0.00,,,0.00,WUHU21623XXSP,2013-02-26 17:46:00,
2013-02-26 11:51:00,54.5,32.9,29.61,West,270,3.8,7.8,44,0.00,,,0.00,WUHU21623XXSP,2013-02-26 17:51:00,
2013-02-26 11:56:00,54.7,32.9,29.60,SW,225,4.0,7.8,44,0.00,,,0.00,WUHU21623XXSP,2013-02-26 17:56:00,
2013-02-26 12:01:00,55.0,33.4,29.61,West,270,2.0,5.1,44,0.00,,,0.00,WUHU21623XXSP,2013-02-26 18:01:00,
2013-02-26 12:06:00,55.4,33.1,29.60,WNW,292,1.3,5.8,43,0.00,,,0.00,WUHU21623XXSP,2013-02-26 18:06:00,
2013-02-26 12:11:00,55.6,32.7,29.60,WNW,292,5.8,10.5,42,0.00,,,0.00,WUHU21623XXSP,2013-02-26 18:11:00,
2013-02-26 12:16:00,55.9,32.5,29.59,WNW,292,8.1,10.5,41,0.00,,,0.00,WUHU21623XXSP,2013-02-26 18:16:00,
2013-02-26 12:21:00,56.3,32.8,29.60,NW,315,9.2,10.5,41,0.00,,,0.00,WUHU21623XXSP,2013-02-26 18:21:00,
2013-02-26 12:26:00,56.5,33.0,29.59,NW,315,6.7,10.5,41,0.00,,,0.00,WUHU21623XXSP,2013-02-26 18:26:00,
2013-02-26 12:31:00,56.5,33.0,29.59,NW,315,6.7,6.7,40,0.00,,,0.00,WUHU21623XXSP,2013-02-26 18:31:00,
2013-02-26 12:36:00,56.8,33.3,29.58,North,0,3.4,9.6,41,0.00,,,0.00,WUHU21623XXSP,2013-02-26 18:36:00,
2013-02-26 12:41:00,57.0,32.9,29.58,WSW,247,3.8,9.6,40,0.00,,,0.00,WUHU21623XXSP,2013-02-26 18:41:00,
2013-02-26 12:46:00,57.0,32.9,29.58,NNW,337,6.7,6.7,40,0.00,,,0.00,WUHU21623XXSP,2013-02-26 18:46:00,
2013-02-26 12:51:00,57.6,33.4,29.57,NNW,337,10.7,10.7,40,0.00,,,0.00,WUHU21623XXSP,2013-02-26 18:51:00,
2013-02-26 12:56:00,57.7,32.9,29.57,WSW,247,4.7,10.7,39,0.00,,,0.00,WUHU21623XXSP,2013-02-26 18:56:00,
2013-02-26 13:01:00,57.7,33.6,29.57,WNW,292,1.6,10.7,40,0.00,,,0.00,WUHU21623XXSP,2013-02-26 19:01:00,
2013-02-26 13:06:00,58.3,33.4,29.57,NNW,337,4.0,5.6,39,0.00,,,0.00,WUHU21623XXSP,2013-02-26 19:06:00,
2013-02-26 13:11:00,58.6,33.4,29.57,North,0,3.4,5.4,39,0.00,,,0.00,WUHU21623XXSP,2013-02-26 19:11:00,
2013-02-26 13:16:00,58.8,33.1,29.56,NW,315,6.9,6.9,38,0.00,,,0.00,WUHU21623XXSP,2013-02-26 19:16:00,
2013-02-26 13:21:00,58.8,33.1,29.56,WSW,247,0.0,6.9,38,0.00,,,0.00,WUHU21623XXSP,2013-02-26 19:21:00,
2013-02-26 13:26:00,59.2,34.1,29.56,West,270,3.6,6.9,39,0.00,,,0.00,WUHU21623XXSP,2013-02-26 19:26:00,
2013-02-26 13:31:00,59.4,32.9,29.56,West,270,2.0,4.9,37,0.00,,,0.00,WUHU21623XXSP,2013-02-26 19:31:00,
2013-02-26 13:36:00,59.5,33.1,29.55,WNW,292,5.1,5.1,37,0.00,,,0.00,WUHU21623XXSP,2013-02-26 19:36:00,
2013-02-26 13:41:00,59.5,33.1,29.55,WNW,292,5.1,5.1,37,0.00,,,0.00,WUHU21623XXSP,2013-02-26 19:41:00,
2013-02-26 13:46:00,59.7,33.2,29.55,SW,225,3.1,6.3,37,0.00,,,0.00,WUHU21623XXSP,2013-02-26 19:46:00,
2013-02-26 13:51:00,59.7,32.5,29.55,WNW,292,1.6,6.3,36,0.00,,,0.00,WUHU21623XXSP,2013-02-26 19:51:00,
2013-02-26 13:56:00,59.9,33.4,29.55,NNW,337,0.0,6.3,37,0.00,,,0.00,WUHU21623XXSP,2013-02-26 19:56:00,
2013-02-26 14:01:00,60.1,32.8,29.55,NW,315,7.4,7.4,36,0.00,,,0.00,WUHU21623XXSP,2013-02-26 20:01:00,
2013-02-26 14:06:00,60.4,33.8,29.55,South,180,2.5,7.4,37,0.00,,,0.00,WUHU21623XXSP,2013-02-26 20:06:00,
2013-02-26 14:11:00,60.6,33.3,29.55,NNW,337,8.5,8.5,36,0.00,,,0.00,WUHU21623XXSP,2013-02-26 20:11:00,
2013-02-26 14:16:00,60.8,33.4,29.55,NNW,337,2.2,8.5,36,0.00,,,0.00,WUHU21623XXSP,2013-02-26 20:16:00,
2013-02-26 14:21:00,61.0,33.6,29.54,NW,315,7.6,7.8,36,0.00,,,0.00,WUHU21623XXSP,2013-02-26 20:21:00,
2013-02-26 14:26:00,61.2,33.0,29.55,WSW,247,2.0,7.6,35,0.00,,,0.00,WUHU21623XXSP,2013-02-26 20:26:00,
2013-02-26 14:31:00,61.3,33.2,29.55,West,270,4.9,7.6,35,0.00,,,0.00,WUHU21623XXSP,2013-02-26 20:31:00,
2013-02-26 14:36:00,61.3,33.2,29.55,NW,315,6.5,6.5,35,0.00,,,0.00,WUHU21623XXSP,2013-02-26 20:36:00,
2013-02-26 14:41:00,61.5,33.4,29.54,SSW,202,6.0,6.5,35,0.00,,,0.00,WUHU21623XXSP,2013-02-26 20:41:00,
2013-02-26 14:46:00,61.7,32.8,29.54,NW,315,9.2,9.2,34,0.00,,,0.00,WUHU21623XXSP,2013-02-26 20:46:00,
2013-02-26 14:51:00,61.7,33.5,29.54,NNW,337,10.1,10.1,35,0.00,,,0.00,WUHU21623XXSP,2013-02-26 20:51:00,
2013-02-26 14:56:00,61.7,32.8,29.54,NW,315,4.5,10.1,34,0.00,,,0.00,WUHU21623XXSP,2013-02-26 20:56:00,
2013-02-26 15:01:00,61.7,32.8,29.53,West,270,4.0,4.5,34,0.00,,,0.00,WUHU21623XXSP,2013-02-26 21:01:00,
2013-02-26 15:06:00,62.1,33.9,29.54,WNW,292,2.0,4.0,35,0.00,,,0.00,WUHU21623XXSP,2013-02-26 21:06:00,
2013-02-26 15:12:00,62.1,33.1,29.54,WNW,292,6.0,6.0,34,0.00,,,0.00,WUHU21623XXSP,2013-02-26 21:12:00,
2013-02-26 15:17:00,62.2,33.3,29.53,South,180,5.1,6.0,34,0.00,,,0.00,WUHU21623XXSP,2013-02-26 21:17:00,
2013-02-26 15:22:00,62.4,33.5,29.53,West,270,2.5,5.1,34,0.00,,,0.00,WUHU21623XXSP,2013-02-26 21:22:00,
2013-02-26 15:27:00,62.4,33.5,29.54,SW,225,3.1,4.5,34,0.00,,,0.00,WUHU21623XXSP,2013-02-26 21:27:00,
2013-02-26 15:32:00,62.4,33.5,29.54,WNW,292,8.1,9.8,34,0.00,,,0.00,WUHU21623XXSP,2013-02-26 21:32:00,
2013-02-26 15:37:00,62.4,32.7,29.53,West,270,4.5,9.8,33,0.00,,,0.00,WUHU21623XXSP,2013-02-26 21:37:00,
2013-02-26 15:42:00,62.4,32.7,29.53,West,270,6.7,6.7,33,0.00,,,0.00,WUHU21623XXSP,2013-02-26 21:42:00,
2013-02-26 15:47:00,62.2,32.6,29.52,ENE,67,2.2,6.7,33,0.00,,,0.00,WUHU21623XXSP,2013-02-26 21:47:00,
2013-02-26 15:52:00,62.4,32.7,29.53,WSW,247,0.0,2.9,33,0.00,,,0.00,WUHU21623XXSP,2013-02-26 21:52:00,
2013-02-26 15:57:00,62.6,32.9,29.53,NW,315,2.0,6.3,33,0.00,,,0.00,WUHU21623XXSP,2013-02-26 21:57:00,
2013-02-26 16:02:00,62.6,32.9,29.53,WNW,292,4.5,6.3,33,0.00,,,0.00,WUHU21623XXSP,2013-02-26 22:02:00,
2013-02-26 16:07:00,62.8,33.1,29.53,WNW,292,0.0,4.5,33,0.00,,,0.00,WUHU21623XXSP,2013-02-26 22:07:00,
2013-02-26 16:12:00,62.8,33.1,29.53,WNW,292,1.6,4.3,33,0.00,,,0.00,WUHU21623XXSP,2013-02-26 22:12:00,
2013-02-26 16:17:00,62.8,33.1,29.53,SW,225,0.0,1.6,33,0.00,,,0.00,WUHU21623XXSP,2013-02-26 22:17:00,
2013-02-26 16:22:00,63.0,33.2,29.53,SW,225,2.9,2.9,33,0.00,,,0.00,WUHU21623XXSP,2013-02-26 22:22:00,
2013-02-26 16:27:00,62.8,33.1,29.53,WNW,292,4.9,6.3,33,0.00,,,0.00,WUHU21623XXSP,2013-02-26 22:27:00,
2013-02-26 16:32:00,62.8,33.1,29.53,NW,315,0.0,6.3,33,0.00,,,0.00,WUHU21623XXSP,2013-02-26 22:32:00,
2013-02-26 16:37:00,62.8,33.8,29.53,SSW,202,2.5,2.9,34,0.00,,,0.00,WUHU21623XXSP,2013-02-26 22:37:00,
2013-02-26 16:42:00,63.0,33.9,29.53,SW,225,0.0,2.9,34,0.00,,,0.00,WUHU21623XXSP,2013-02-26 22:42:00,
2013-02-26 16:47:00,63.0,33.9,29.53,WNW,292,3.1,3.1,33,0.00,,,0.00,WUHU21623XXSP,2013-02-26 22:47:00,
2013-02-26 16:52:00,63.0,33.9,29.53,WSW,247,2.9,3.1,34,0.00,,,0.00,WUHU21623XXSP,2013-02-26 22:52:00,
2013-02-26 16:57:00,63.0,33.9,29.53,West,270,0.0,2.9,34,0.00,,,0.00,WUHU21623XXSP,2013-02-26 22:57:00,
2013-02-26 17:02:00,62.8,33.8,29.53,WSW,247,3.6,3.6,34,0.00,,,0.00,WUHU21623XXSP,2013-02-26 23:02:00,
2013-02-26 17:07:00,62.8,33.8,29.54,West,270,0.0,3.6,34,0.00,,,0.00,WUHU21623XXSP,2013-02-26 23:07:00,
2013-02-26 17:12:00,62.8,34.5,29.53,South,180,0.9,4.0,35,0.00,,,0.00,WUHU21623XXSP,2013-02-26 23:12:00,
2013-02-26 17:17:00,62.6,34.3,29.53,SSW,202,5.1,5.1,35,0.00,,,0.00,WUHU21623XXSP,2013-02-26 23:17:00,
2013-02-26 17:22:00,62.4,33.5,29.53,SW,225,1.8,5.1,34,0.00,,,0.00,WUHU21623XXSP,2013-02-26 23:22:00,
2013-02-26 17:27:00,62.4,34.2,29.53,SSW,202,1.6,2.2,35,0.00,,,0.00,WUHU21623XXSP,2013-02-26 23:27:00,
2013-02-26 17:32:00,62.2,34.0,29.53,SW,225,0.0,1.6,35,0.00,,,0.00,WUHU21623XXSP,2013-02-26 23:32:00,
2013-02-26 17:37:00,62.2,34.0,29.53,SW,225,0.0,1.3,35,0.00,,,0.00,WUHU21623XXSP,2013-02-26 23:37:00,
2013-02-26 17:42:00,61.9,33.7,29.53,WSW,247,0.0,0.0,35,0.00,,,0.00,WUHU21623XXSP,2013-02-26 23:42:00,
2013-02-26 17:47:00,61.7,33.5,29.53,NNW,337,1.1,1.1,35,0.00,,,0.00,WUHU21623XXSP,2013-02-26 23:47:00,
2013-02-26 17:52:00,61.5,34.1,29.53,South,180,0.0,1.1,36,0.00,,,0.00,WUHU21623XXSP,2013-02-26 23:52:00,
2013-02-26 17:57:00,61.3,33.9,29.52,SSE,157,0.0,0.0,36,0.00,,,0.00,WUHU21623XXSP,2013-02-26 23:57:00,
2013-02-26 18:02:00,61.2,33.8,29.53,SSE,157,0.0,1.3,36,0.00,,,0.00,WUHU21623XXSP,2013-02-27 00:02:00,
2013-02-26 18:07:00,60.8,34.2,29.53,SSE,157,0.0,1.3,37,0.00,,,0.00,WUHU21623XXSP,2013-02-27 00:07:00,
2013-02-26 18:12:00,60.6,34.0,29.53,SSE,157,0.0,0.0,37,0.00,,,0.00,WUHU21623XXSP,2013-02-27 00:12:00,
2013-02-26 18:17:00,60.4,33.8,29.52,SE,135,0.0,0.0,37,0.00,,,0.00,WUHU21623XXSP,2013-02-27 00:17:00,
2013-02-26 18:22:00,59.9,34.1,29.53,SE,135,0.0,0.0,38,0.00,,,0.00,WUHU21623XXSP,2013-02-27 00:22:00,
2013-02-26 18:27:00,59.5,34.5,29.53,SE,135,0.0,0.0,39,0.00,,,0.00,WUHU21623XXSP,2013-02-27 00:27:00,
2013-02-26 18:32:00,59.2,34.1,29.53,NE,45,0.0,0.0,39,0.00,,,0.00,WUHU21623XXSP,2013-02-27 00:32:00,
2013-02-26 18:37:00,58.6,34.4,29.53,NE,45,0.0,0.0,40,0.00,,,0.00,WUHU21623XXSP,2013-02-27 00:37:00,
2013-02-26 18:42:00,58.3,34.1,29.53,NE,45,0.0,0.0,40,0.00,,,0.00,WUHU21623XXSP,2013-02-27 00:42:00,
2013-02-26 18:47:00,58.1,33.9,29.53,NE,45,0.0,0.0,40,0.00,,,0.00,WUHU21623XXSP,2013-02-27 00:47:00,
2013-02-26 18:52:00,57.7,34.1,29.53,SW,225,0.0,0.0,41,0.00,,,0.00,WUHU21623XXSP,2013-02-27 00:52:00,
2013-02-26 18:57:00,57.4,33.8,29.52,WSW,247,0.0,0.0,41,0.00,,,0.00,WUHU21623XXSP,2013-02-27 00:57:00,
2013-02-26 19:02:00,57.0,34.1,29.53,SW,225,0.0,0.0,42,0.00,,,0.00,WUHU21623XXSP,2013-02-27 01:02:00,
2013-02-26 19:07:00,56.7,33.7,29.52,WSW,247,0.0,0.0,42,0.00,,,0.00,WUHU21623XXSP,2013-02-27 01:07:00,
2013-02-26 19:12:00,56.3,33.4,29.52,WNW,292,0.0,0.0,42,0.00,,,0.00,WUHU21623XXSP,2013-02-27 01:12:00,
2013-02-26 19:17:00,56.1,33.8,29.52,West,270,0.0,0.0,43,0.00,,,0.00,WUHU21623XXSP,2013-02-27 01:17:00,
2013-02-26 19:22:00,55.8,34.0,29.52,South,180,0.0,0.0,44,0.00,,,0.00,WUHU21623XXSP,2013-02-27 01:22:00,
2013-02-26 19:27:00,55.2,34.1,29.53,North,0,0.0,0.0,45,0.00,,,0.00,WUHU21623XXSP,2013-02-27 01:27:00,
2013-02-26 19:32:00,55.0,33.9,29.53,SW,225,0.0,0.0,45,0.00,,,0.00,WUHU21623XXSP,2013-02-27 01:32:00,
2013-02-26 19:37:00,54.7,34.2,29.54,WSW,247,0.0,0.0,46,0.00,,,0.00,WUHU21623XXSP,2013-02-27 01:37:00,
2013-02-26 19:42:00,54.5,34.0,29.54,SSW,202,0.0,0.0,46,0.00,,,0.00,WUHU21623XXSP,2013-02-27 01:42:00,
2013-02-26 19:47:00,54.3,33.8,29.54,SSE,157,2.7,2.7,46,0.00,,,0.00,WUHU21623XXSP,2013-02-27 01:47:00,
2013-02-26 19:53:00,53.8,33.5,29.54,SSE,157,0.0,2.7,47,0.00,,,0.00,WUHU21623XXSP,2013-02-27 01:53:00,
2013-02-26 19:58:00,53.8,33.9,29.54,South,180,2.5,2.5,47,0.00,,,0.00,WUHU21623XXSP,2013-02-27 01:58:00,
2013-02-26 20:03:00,53.8,33.9,29.54,SE,135,0.0,2.5,47,0.00,,,0.00,WUHU21623XXSP,2013-02-27 02:03:00,
2013-02-26 20:08:00,53.8,33.9,29.54,SSE,157,2.2,3.8,47,0.00,,,0.00,WUHU21623XXSP,2013-02-27 02:08:00,
2013-02-26 20:13:00,53.8,33.9,29.54,SSE,157,3.6,3.6,47,0.00,,,0.00,WUHU21623XXSP,2013-02-27 02:13:00,
2013-02-26 20:18:00,54.0,33.5,29.55,SSE,157,5.4,5.4,46,0.00,,,0.00,WUHU21623XXSP,2013-02-27 02:18:00,
2013-02-26 20:23:00,54.0,33.5,29.54,ESE,112,2.0,5.4,46,0.00,,,0.00,WUHU21623XXSP,2013-02-27 02:23:00,
2013-02-26 20:28:00,54.1,33.7,29.55,SSE,157,2.0,4.3,46,0.00,,,0.00,WUHU21623XXSP,2013-02-27 02:28:00,
2013-02-26 20:33:00,54.3,33.3,29.55,South,180,3.6,4.3,45,0.00,,,0.00,WUHU21623XXSP,2013-02-27 02:33:00,
2013-02-26 20:38:00,54.3,33.3,29.55,SSE,157,3.8,3.8,45,0.00,,,0.00,WUHU21623XXSP,2013-02-27 02:38:00,
2013-02-26 20:41:00,54.3,33.3,29.55,South,180,4.0,4.0,45,0.00,,,0.00,WUHU21623XXSP,2013-02-27 02:41:00,
2013-02-26 20:48:00,54.3,33.3,29.55,SSE,157,5.8,6.3,45,0.00,,,0.00,WUHU21623XXSP,2013-02-27 02:48:00,
2013-02-26 20:52:00,54.3,33.3,29.55,SSE,157,4.0,6.3,44,0.00,,,0.00,WUHU21623XXSP,2013-02-27 02:52:00,
2013-02-26 20:56:00,54.3,32.7,29.55,SSE,157,2.9,6.9,44,0.00,,,0.00,WUHU21623XXSP,2013-02-27 02:56:00,
2013-02-26 21:03:00,54.3,32.7,29.55,SSE,157,6.5,6.9,44,0.00,,,0.00,WUHU21623XXSP,2013-02-27 03:03:00,
2013-02-26 21:07:00,54.3,32.7,29.55,SSE,157,4.5,6.5,44,0.00,,,0.00,WUHU21623XXSP,2013-02-27 03:07:00,
2013-02-26 21:11:00,54.1,32.6,29.56,SSE,157,4.0,4.5,44,0.00,,,0.00,WUHU21623XXSP,2013-02-27 03:11:00,
2013-02-26 21:18:00,54.1,32.6,29.56,South,180,4.0,4.5,44,0.00,,,0.00,WUHU21623XXSP,2013-02-27 03:18:00,
2013-02-26 21:22:00,54.1,32.6,29.56,SSE,157,3.6,4.9,44,0.00,,,0.00,WUHU21623XXSP,2013-02-27 03:22:00,
2013-02-26 21:26:00,54.0,32.4,29.56,SSE,157,2.0,4.9,44,0.00,,,0.00,WUHU21623XXSP,2013-02-27 03:26:00,
2013-02-26 21:33:00,53.8,32.2,29.57,SSE,157,2.7,3.8,44,0.00,,,0.00,WUHU21623XXSP,2013-02-27 03:33:00,
2013-02-26 21:37:00,53.8,32.8,29.57,SSE,157,6.5,6.5,45,0.00,,,0.00,WUHU21623XXSP,2013-02-27 03:37:00,
2013-02-26 21:41:00,53.4,32.5,29.56,SSE,157,2.5,6.5,45,0.00,,,0.00,WUHU21623XXSP,2013-02-27 03:41:00,
2013-02-26 21:48:00,53.4,31.9,29.57,SSE,157,3.6,4.5,44,0.00,,,0.00,WUHU21623XXSP,2013-02-27 03:48:00,
2013-02-26 21:52:00,53.4,31.9,29.56,SSE,157,4.5,4.5,44,0.00,,,0.00,WUHU21623XXSP,2013-02-27 03:52:00,
2013-02-26 21:56:00,53.4,31.9,29.56,South,180,5.1,5.1,44,0.00,,,0.00,WUHU21623XXSP,2013-02-27 03:56:00,
2013-02-26 22:03:00,53.2,31.7,29.55,SSE,157,3.4,5.1,44,0.00,,,0.00,WUHU21623XXSP,2013-02-27 04:03:00,
2013-02-26 22:07:00,53.1,31.6,29.55,South,180,4.9,4.9,44,0.00,,,0.00,WUHU21623XXSP,2013-02-27 04:07:00,
2013-02-26 22:11:00,52.9,32.0,29.55,South,180,3.8,4.9,45,0.00,,,0.00,WUHU21623XXSP,2013-02-27 04:11:00,
2013-02-26 22:18:00,52.5,31.7,29.55,ESE,112,1.6,3.8,45,0.00,,,0.00,WUHU21623XXSP,2013-02-27 04:18:00,
2013-02-26 22:22:00,52.3,31.5,29.55,South,180,0.0,1.6,45,0.00,,,0.00,WUHU21623XXSP,2013-02-27 04:22:00,
2013-02-26 22:26:00,52.2,31.3,29.55,WSW,247,0.0,0.0,45,0.00,,,0.00,WUHU21623XXSP,2013-02-27 04:26:00,
2013-02-26 22:33:00,51.6,30.8,29.54,SW,225,0.0,0.0,45,0.00,,,0.00,WUHU21623XXSP,2013-02-27 04:33:00,
2013-02-26 22:37:00,51.4,30.7,29.55,SW,225,0.0,0.0,45,0.00,,,0.00,WUHU21623XXSP,2013-02-27 04:37:00,
2013-02-26 22:41:00,51.3,30.5,29.55,SW,225,0.7,0.7,45,0.00,,,0.00,WUHU21623XXSP,2013-02-27 04:41:00,
2013-02-26 22:48:00,50.9,30.2,29.55,SW,225,1.6,1.6,45,0.00,,,0.00,WUHU21623XXSP,2013-02-27 04:48:00,
2013-02-26 22:52:00,50.7,30.0,29.55,South,180,1.1,1.6,45,0.00,,,0.00,WUHU21623XXSP,2013-02-27 04:52:00,
2013-02-26 22:58:00,50.7,30.6,29.55,East,90,0.0,1.1,46,0.00,,,0.00,WUHU21623XXSP,2013-02-27 04:58:00,
2013-02-26 23:03:00,50.5,30.4,29.55,SE,135,0.0,0.0,46,0.00,,,0.00,WUHU21623XXSP,2013-02-27 05:03:00,
2013-02-26 23:07:00,50.5,30.4,29.55,North,0,0.0,0.0,46,0.00,,,0.00,WUHU21623XXSP,2013-02-27 05:07:00,
2013-02-26 23:18:00,49.6,30.3,29.55,SW,225,0.0,2.5,47,0.00,,,0.00,WUHU21623XXSP,2013-02-27 05:18:00,
2013-02-26 23:28:00,48.7,29.8,29.54,WNW,292,0.7,1.3,48,0.00,,,0.00,WUHU21623XXSP,2013-02-27 05:28:00,
2013-02-26 23:37:00,48.0,29.7,29.54,NE,45,0.0,0.0,49,0.00,,,0.00,WUHU21623XXSP,2013-02-27 05:37:00,
2013-02-26 23:58:00,47.3,30.0,29.55,South,180,0.0,0.0,51,0.00,,,0.00,WUHU21623XXSP,2013-02-27 05:58:00,